Weather History for Algona, IA

Change the Weather History Date:

Friday, August 29, 2014

  Actual Average Record
Temperature  
Mean Temperature 72 °F -  
Max Temperature 77 °F 78 °F 95 °F (2012)
Min Temperature 68 °F 58 °F 46 °F (2004)
Cooling Degree Days 8    
Growing Degree Days 22 (Base 50)    
Moisture  
Dew Point 69 °F    
Average Humidity 91    
Maximum Humidity 100    
Minimum Humidity 78    
Precipitation  
Precipitation 0.36 in - - ()
Sea Level Pressure  
Sea Level Pressure 29.81 in    
Wind  
Wind Speed 12 mph (SSW)    
Max Wind Speed 20 mph    
Max Gust Speed 26 mph    
Visibility 9 miles    
Events Rain    
Averages and records for this station are not official NWS values.
T = Trace of Precipitation, MM = Missing Value Source: NWS Daily Summary

Daily Weather History Graph

Daily Weather History Graph

Search for Another Location

Airport:

Trip Planner

Search our weather history database for the weather conditions in past years. The results will help you decide how hot, cold, wet, or windy it might be!

Date:

Astronomy

Aug. 29, 2014 Rise Set
Actual Time 6:38 AM CDT 7:56 PM CDT
Civil Twilight 6:08 AM CDT 8:26 PM CDT
Nautical Twilight 5:33 AM CDT 9:01 PM CDT
Astronomical Twilight 4:55 AM CDT 9:38 PM CDT
Moon 10:35 AM CDT (8/29) 9:47 PM CDT (8/29)
Length of Visible Light 14h 17m
Length of Day
13h 18m
Waxing Crescent, 15% of the Moon is Illuminated
Aug 29
Waxing Crescent
Sep 2
First Quarter
Sep 8
Full
Sep 15
Last Quarter
Sep 24
New

Hourly Weather History & Observations

Time (CDT) Temp. Dew Point Humidity Pressure Visibility Wind Dir Wind Speed Gust Speed Precip Events Conditions
12:15 AM 71.6 °F 71.6 °F 100% 29.88 in 3.0 mi SSE 15.0 mph 24.2 mph N/A Rain Light Rain
12:35 AM 71.6 °F 71.6 °F 100% 29.86 in 3.0 mi SE 12.7 mph 20.7 mph N/A Rain Light Rain
12:55 AM 71.6 °F 71.6 °F 100% 29.87 in 4.0 mi SSE 15.0 mph 21.9 mph 0.25 in   Light Drizzle
1:15 AM 71.6 °F 71.6 °F 100% 29.87 in 5.0 mi SSE 15.0 mph 21.9 mph N/A   Light Drizzle
1:35 AM 71.6 °F 69.8 °F 94% 29.86 in 6.0 mi SSE 17.3 mph 24.2 mph N/A   Overcast
1:55 AM 69.8 °F 69.8 °F 100% 29.86 in 7.0 mi SSE 16.1 mph 23.0 mph 0.02 in   Mostly Cloudy
2:15 AM 69.8 °F 69.8 °F 100% 29.86 in 10.0 mi SSE 12.7 mph 23.0 mph N/A   Scattered Clouds
2:35 AM 69.8 °F 68.0 °F 94% 29.85 in 10.0 mi SSE 11.5 mph 19.6 mph N/A   Mostly Cloudy
2:55 AM 68.0 °F 68.0 °F 100% 29.84 in 10.0 mi SSE 19.6 mph - N/A   Mostly Cloudy
3:15 AM 68.0 °F 68.0 °F 100% 29.84 in 10.0 mi South 16.1 mph 23.0 mph N/A   Mostly Cloudy
3:35 AM 68.0 °F 68.0 °F 100% 29.83 in 10.0 mi South 15.0 mph 20.7 mph N/A   Mostly Cloudy
3:55 AM 68.0 °F 68.0 °F 100% 29.83 in 10.0 mi South 12.7 mph - N/A   Partly Cloudy
4:15 AM 68.0 °F 68.0 °F 100% 29.83 in 10.0 mi South 13.8 mph 20.7 mph N/A   Clear
4:35 AM 68.0 °F 66.2 °F 94% 29.83 in 10.0 mi SSE 17.3 mph - N/A   Clear
4:55 AM 68.0 °F 66.2 °F 94% 29.83 in 10.0 mi South 15.0 mph 21.9 mph N/A   Clear
5:15 AM 68.0 °F 68.0 °F 100% 29.82 in 10.0 mi South 13.8 mph 20.7 mph N/A   Clear
5:35 AM 68.0 °F 68.0 °F 100% 29.82 in 9.0 mi South 15.0 mph 21.9 mph N/A   Scattered Clouds
5:55 AM 68.0 °F 66.2 °F 94% 29.81 in 9.0 mi South 15.0 mph 26.5 mph 0.02 in Rain Light Rain
6:15 AM 68.0 °F 66.2 °F 94% 29.81 in 10.0 mi South 9.2 mph 17.3 mph N/A   Partly Cloudy
6:35 AM 68.0 °F 66.2 °F 94% 29.81 in 10.0 mi South 8.1 mph - N/A   Clear
6:55 AM 68.0 °F 66.2 °F 94% 29.81 in 10.0 mi South 9.2 mph - N/A   Clear
7:15 AM 68.0 °F 66.2 °F 94% 29.81 in 10.0 mi South 10.4 mph - N/A   Clear
7:35 AM 68.0 °F 66.2 °F 94% 29.81 in 10.0 mi South 13.8 mph - N/A   Clear
7:55 AM 68.0 °F 66.2 °F 94% 29.82 in 10.0 mi South 11.5 mph 18.4 mph N/A   Clear
8:15 AM 68.0 °F 66.2 °F 94% 29.82 in 10.0 mi South 10.4 mph - N/A   Clear
8:35 AM 69.8 °F 66.2 °F 88% 29.82 in 10.0 mi South 13.8 mph - N/A   Clear
8:55 AM 69.8 °F 68.0 °F 94% 29.82 in 10.0 mi South 12.7 mph - N/A   Clear
9:15 AM 69.8 °F 66.2 °F 88% 29.82 in 10.0 mi South 9.2 mph - N/A   Clear
9:35 AM 69.8 °F 68.0 °F 94% 29.83 in 10.0 mi SSW 9.2 mph - N/A   Clear
9:55 AM 71.6 °F 68.0 °F 88% 29.83 in 10.0 mi SSW 11.5 mph - N/A   Clear
10:15 AM 73.4 °F 69.8 °F 88% 29.83 in 10.0 mi SSW 12.7 mph 18.4 mph N/A   Partly Cloudy
10:35 AM 75.2 °F 69.8 °F 83% 29.82 in 10.0 mi SSW 16.1 mph - N/A   Scattered Clouds
10:55 AM 75.2 °F 69.8 °F 83% 29.82 in 10.0 mi SSW 17.3 mph - N/A   Scattered Clouds
11:15 AM 75.2 °F 71.6 °F 89% 29.82 in 10.0 mi SSW 11.5 mph 20.7 mph N/A   Partly Cloudy
11:35 AM 75.2 °F 71.6 °F 89% 29.81 in 10.0 mi SSW 11.5 mph - N/A   Partly Cloudy
11:55 AM 75.2 °F 71.6 °F 89% 29.82 in 10.0 mi SSW 9.2 mph - N/A   Partly Cloudy
12:15 PM 75.2 °F 71.6 °F 89% 29.82 in 10.0 mi SSW 10.4 mph - N/A   Partly Cloudy
12:35 PM 75.2 °F 71.6 °F 89% 29.82 in 10.0 mi SW 10.4 mph - N/A   Scattered Clouds
12:55 PM 75.2 °F 69.8 °F 83% 29.83 in 10.0 mi WSW 10.4 mph 16.1 mph N/A   Mostly Cloudy
1:15 PM 75.2 °F 71.6 °F 89% 29.81 in 10.0 mi SW 5.8 mph - N/A   Mostly Cloudy
1:35 PM 75.2 °F 69.8 °F 83% 29.81 in 10.0 mi SW 5.8 mph - N/A   Mostly Cloudy
1:55 PM 77.0 °F 69.8 °F 78% 29.81 in 10.0 mi SW 11.5 mph - N/A   Mostly Cloudy
2:15 PM 77.0 °F 69.8 °F 78% 29.81 in 10.0 mi WSW 12.7 mph - N/A   Scattered Clouds
2:30 PM 77.0 °F 69.8 °F 78% 29.80 in 10.0 mi WSW 10.4 mph 16.1 mph N/A   Clear
2:55 PM 77.0 °F 69.8 °F 78% 29.80 in 10.0 mi WSW 8.1 mph - N/A   Clear
3:15 PM 77.0 °F 69.8 °F 78% 29.79 in 10.0 mi WSW 10.4 mph 16.1 mph N/A   Partly Cloudy
3:35 PM 77.0 °F 69.8 °F 78% 29.78 in 10.0 mi SW 8.1 mph - N/A   Partly Cloudy
3:55 PM 77.0 °F 69.8 °F 78% 29.78 in 10.0 mi WSW 11.5 mph - N/A   Scattered Clouds
4:15 PM 77.0 °F 71.6 °F 83% 29.78 in - SW 10.4 mph - N/A   Mostly Cloudy
4:35 PM 77.0 °F 69.8 °F 78% 29.78 in 10.0 mi SW 11.5 mph - N/A   Mostly Cloudy
4:55 PM 75.2 °F 69.8 °F 83% 29.78 in 10.0 mi SW 6.9 mph - N/A   Scattered Clouds
5:15 PM 75.2 °F 69.8 °F 83% 29.78 in 10.0 mi SW 6.9 mph - N/A   Scattered Clouds
5:35 PM 75.2 °F 69.8 °F 83% 29.78 in 10.0 mi SSW 5.8 mph - N/A   Scattered Clouds
5:55 PM 75.2 °F 69.8 °F 83% 29.78 in 10.0 mi SW 4.6 mph - N/A   Mostly Cloudy
6:15 PM 75.2 °F 69.8 °F 83% 29.78 in 10.0 mi SW 4.6 mph - N/A   Overcast
6:35 PM 73.4 °F 69.8 °F 88% 29.77 in 10.0 mi WSW 4.6 mph - N/A   Mostly Cloudy
6:55 PM 73.4 °F 69.8 °F 88% 29.77 in 10.0 mi Calm Calm - N/A   Mostly Cloudy
7:15 PM 73.4 °F 69.8 °F 88% 29.78 in 10.0 mi Calm Calm - N/A   Mostly Cloudy
7:35 PM 73.4 °F 71.6 °F 94% 29.77 in 10.0 mi Calm Calm - N/A   Overcast
7:55 PM 73.4 °F 71.6 °F 94% 29.77 in 9.0 mi Calm Calm - N/A   Overcast
8:15 PM 71.6 °F 69.8 °F 94% 29.77 in 10.0 mi North 3.5 mph - N/A   Overcast
8:35 PM 71.6 °F 69.8 °F 94% 29.78 in 10.0 mi Calm Calm - N/A   Overcast
8:55 PM 71.6 °F 69.8 °F 94% 29.78 in 10.0 mi WNW 3.5 mph - N/A   Overcast
9:15 PM 71.6 °F 69.8 °F 94% 29.79 in 8.0 mi Calm Calm - N/A Rain Light Rain
9:35 PM 68.0 °F 68.0 °F 100% 29.79 in 5.0 mi Calm Calm - N/A   Light Drizzle
9:55 PM 68.0 °F 68.0 °F 100% 29.79 in 5.0 mi Calm Calm - 0.05 in Rain Light Rain
10:15 PM 68.0 °F 68.0 °F 100% 29.79 in 4.0 mi Calm Calm - N/A Rain Light Rain
10:35 PM 68.0 °F 68.0 °F 100% 29.79 in 4.0 mi Calm Calm - N/A Rain Light Rain
11:15 PM 69.8 °F 69.8 °F 100% 29.79 in 5.0 mi NW 4.6 mph - N/A   Light Drizzle
11:35 PM 68.0 °F 68.0 °F 100% 29.78 in 7.0 mi NNW 6.9 mph - N/A   Overcast
11:55 PM 68.0 °F 68.0 °F 100% 29.79 in 10.0 mi NW 6.9 mph - 0.02 in   Overcast